This is the latest recevied weather packets stored in our database for station/object WA6ODQ-13. If no packets are shown the sender has not sent any weather packets the latest 10 day(s).
| Time | Temp. | Humidity | Pressure | Rain* | Wind** | Luminosity | Snow |
|---|---|---|---|---|---|---|---|
| 1788521756 | 15° C | 86% | 1009.9 hPa | 0 mm | - | 0 W/m² | - |
| 1788521451 | 15.56° C | 85% | 1009.9 hPa | 0 mm | - | 0 W/m² | - |
| 1788521146 | 15.56° C | 86% | 1010 hPa | 0 mm | - | 0 W/m² | - |
| 1788520843 | 15.56° C | 86% | 1009.9 hPa | 0 mm | - | 0 W/m² | - |
| 1788520538 | 15.56° C | 86% | 1009.6 hPa | 0 mm | - | 0 W/m² | - |
| 1788520232 | 15.56° C | 86% | 1009.8 hPa | 0 mm | - | 0 W/m² | - |
| 1788519927 | 15.56° C | 86% | 1009.8 hPa | 0 mm | - | 0 W/m² | - |
| 1788519622 | 15.56° C | 87% | 1009.8 hPa | 0 mm | - | 0 W/m² | - |
| 1788519316 | 15.56° C | 86% | 1009.9 hPa | 0 mm | - | 0 W/m² | - |
| 1788519011 | 15.56° C | 85% | 1009.9 hPa | 0 mm | - | 0 W/m² | - |
| 1788518707 | 16.11° C | 84% | 1009.9 hPa | 0 mm | - | 0 W/m² | - |
| 1788518402 | 16.11° C | 84% | 1009.7 hPa | 0 mm | - | 0 W/m² | - |
| 1788518097 | 15.56° C | 85% | 1009.8 hPa | 0 mm | - | 0 W/m² | - |
| 1788517794 | 16.11° C | 85% | 1009.6 hPa | 0 mm | - | 0 W/m² | - |
| 1788517489 | 16.11° C | 85% | 1009.8 hPa | 0 mm | - | 0 W/m² | - |
| 1788517178 | 15.56° C | 86% | 1009.9 hPa | 0 mm | - | 0 W/m² | - |
| 1788516875 | 16.11° C | 87% | 1009.9 hPa | 0 mm | - | 0 W/m² | - |
| 1788516571 | 16.11° C | 86% | 1010 hPa | 0 mm | - | 0 W/m² | - |
| 1788516267 | 16.67° C | 83% | 1009.7 hPa | 0 mm | - | 0 W/m² | - |
| 1788515960 | 16.67° C | 81% | 1009.9 hPa | 0 mm | - | 0 W/m² | - |
| 1788515655 | 16.67° C | 81% | 1009.7 hPa | 0 mm | - | 0 W/m² | - |
| 1788515350 | 16.67° C | 81% | 1009.8 hPa | 0 mm | - | 0 W/m² | - |
| 1788515045 | 16.67° C | 81% | 1009.8 hPa | 0 mm | - | 0 W/m² | - |
| 1788514741 | 16.67° C | 81% | 1009.8 hPa | 0 mm | - | 0 W/m² | - |
| 1788514441 | 17.22° C | 80% | 1009.7 hPa | 0 mm | - | 0 W/m² | - |
* Rain latest hour (hover to see other rain measurements)
** Current wind speed in m/s (hover to see current wind gust speed)